Regional Weather Roundup
Issued by NWS Newport/Morehead, NC

Home | Current Version | Previous Version | Text Only | Print | Product List | Glossary On
Versions: 1 2 3 4 5 6 7 8 9 10 11 12 13 14 15 16 17 18 19 20 21 22 23 24 25 26 27 28 29 30 31 32 33 34 35 36 37 38 39 40 41 42 43 44 45 46 47 48 49 50
000
ASUS42 KMHX 302122
RWRMHX
WEATHER ROUNDUP FOR EASTERN NORTH CAROLINA
NATIONAL WEATHER SERVICE NEWPORT/MOREHEAD CITY NC
500 PM EDT TUE SEP 30 2014

NOTE: "FAIR" INDICATES FEW OR NO CLOUDS BELOW 12,000 FEET
WITH NO SIGNIFICANT WEATHER AND/OR OBSTRUCTIONS TO VISIBILITY

NCZ015>017-031-032-045>047-102-103-302200-
NORTH COAST

CITY           SKY/WX    TMP DP  RH WIND       PRES   REMARKS
EDENTON        MOSUNNY   73  65  75 E5        29.85R
ELIZABETH CITY SUNNY     74  63  68 NE13      29.85S
KITTY HAWK     PTCLDY    73  65  76 NE5       29.84S
MANTEO         SUNNY     73  64  74 N8        29.85S

$$

NCZ045>047-081-094-103-104-302200-
CENTRAL COAST

CITY           SKY/WX    TMP DP  RH WIND       PRES   REMARKS
FRISCO         SUNNY     72  66  81 NE10G18   29.82F
SWANQUARTER      N/A     77 N/A N/A NE6G14    29.79S

$$

NCZ095-097-098-100-101-302200-
SOUTHERN COAST

CITY           SKY/WX    TMP DP  RH WIND       PRES   REMARKS
BEAUFORT       MOSUNNY   78  64  61 NE8       29.82S
CEDAR ISLAND     N/A     73 N/A N/A NE18      29.88S
JACKSONVILLE   PTSUNNY   78  63  59 N7        29.82S
NEWPORT        NOT AVBL
PINEY ISLAND   CLEAR     76  64  66 NE12      29.83R HAZE
WILMINGTON     PTSUNNY   82  64  54 N10       29.82S


$$

NCZ011>013-027>030-043-044-078>080-089-090>093-098-302200-
COASTAL PLAIN

CITY           SKY/WX    TMP DP  RH WIND       PRES   REMARKS
AHOSKIE        MOSUNNY   72  64  75 N5        29.87R
CLINTON        MOSUNNY   79  65  64 N3        29.85S
ELIZABETHTOWN  SUNNY     79  63  58 CALM      29.84S
GOLDSBORO      MOSUNNY   77  67  71 CALM      29.83S
GREENVILLE     PTSUNNY   77  64  65 N8        29.87S
HAVELOCK       MOSUNNY   79  65  62 NE7       29.84R
KENANSVILLE    MOSUNNY   77  61  57 N5        29.85S
KINSTON        MOSUNNY   77  63  61 N5        29.85S
NEW BERN       MOSUNNY   81  63  54 N8        29.84S
RICHLANDS      MOSUNNY   75  63  64 CALM      29.84R
ROANOKE RAPIDS NOT AVBL
ROCKY MOUNT    MOSUNNY   73  63  70 N5        29.87S
WASHINGTON     SUNNY     75  63  67 N3        29.84S
WHITEVILLE     MOSUNNY   78  64  60 W3        29.83S

$$

AMZ130-135-150-152-154-156-158-170-250-252-270-ANZ085-086-088-633-658-670-302200-
MARINE OBSERVATIONS

STATION/POSITION TIME  TEMP    WIND        PRES    WAVE   SWELL
                       AIR SEA DIR/SP/G            HT/PER HT/PER
                 (UTC) (F)     (DEG/KT/KT) (MB)    (FT/S) (FT/S)
CHESAPEAKE LIGHT 2100   70      40/ 11/ 12 1011.7
BUOY 44014       2100   71 74   30/ 10/ 12 1010.3    2/ 7   2/ 7
DUCK             2100   71 73   40/ 11/ 12 1010.2
2E DUCK          2100                        N/A     2/14
OREGON INLET     2100   72 73   10/  9/ 13 1010.5
BUOY 44095       2100      74                N/A     3/ 7   2/15
20E OREGON INLET NOT AVBL
HATTERAS CG      2100   72 76   20/ 15/ 18 1010.4
DIAMOND BUOY     2100   74     360/ 16/ 19 1009.3    4/ 6   2/ 7
CAPE LOOKOUT     2100   75      40/ 13/ 15 1009.8
BEAUFORT LAB     2100   77 75   60/  5/ 12 1009.4
30 SE NEW RIVER  2100   76 80   50/ 12/ 16 1009.2    3/ 7   2/ 7
5 SE WRIGHTSVILL 2100   72 76  100/  8/ 10   N/A
BUOY 41002       2048   76 81  120/ 14/ 16 1007.1    3/ 7   2/ 7
BUOY 41004       2100   76 81   20/ 16/ 19 1009.4    4/ 5   2/ 8

$$



USA.gov is the U.S. government's official web portal to all federal, state and local government web resources and services.